カタログに戻る

SL-19 DEB

運用中UNKNOWN
NORAD 23564·DEBRIS·🇷🇺 Russia

打ち上げ Dec 26, 1994 から Baikonur Cosmodrome

Loading…

次のパス (今後24時間)

TLE

最新Source: Space-Track

元期: Sep 14, 2026, 06:35 UTC

1 23564U 94085V   26257.27467355 -.00000041  00000-0  43974-4 0  9994
2 23564  64.9999   1.1490 0183082  59.3090 328.3141 11.34902626298286

AllMySatでSL-19 DEBをリアルタイム追跡

Download on the App Store